This is the latest recevied weather packets stored in our database for station/object KB3KBR-WX. If no packets are shown the sender has not sent any weather packets the latest 10 day(s).
| Time | Temp. | Humidity | Pressure | Rain* | Wind** | Luminosity | Snow |
|---|---|---|---|---|---|---|---|
| 1778165192 | 11.11° C | 54% | 1009.3 hPa | 0 mm | - | - | - |
| 1778164891 | 11.11° C | 56% | 1009.4 hPa | 0 mm | - | - | - |
| 1778164562 | 11.67° C | 55% | 1009.3 hPa | 0 mm | - | - | - |
| 1778164231 | 11.11° C | 57% | 1009.4 hPa | 0 mm | - | - | - |
| 1778163901 | 11.11° C | 57% | 1009.5 hPa | 0 mm | - | - | - |
| 1778163571 | 11.11° C | 59% | 1009.5 hPa | 0 mm | - | - | - |
| 1778163241 | 11.11° C | 62% | 1009.5 hPa | 0 mm | - | - | - |
| 1778162942 | 10.56° C | 60% | 1009.6 hPa | 0 mm | - | - | - |
| 1778162612 | 10° C | 64% | 1009.6 hPa | 0 mm | - | - | - |
| 1778162350 | 10° C | 66% | 1009.7 hPa | 0 mm | - | - | - |
| 1778162311 | 10° C | 66% | 1009.7 hPa | 0 mm | - | - | - |
| 1778161981 | 9.44° C | 66% | 1009.7 hPa | 0 mm | - | - | - |
| 1778161681 | 9.44° C | 68% | 1009.8 hPa | 0 mm | - | - | - |
| 1778161351 | 9.44° C | 69% | 1009.8 hPa | 0 mm | - | - | - |
| 1778161051 | 8.89° C | 69% | 1009.7 hPa | 0 mm | - | - | - |
| 1778160721 | 8.89° C | 70% | 1009.8 hPa | 0 mm | - | - | - |
| 1778160421 | 9.44° C | 71% | 1009.8 hPa | 0 mm | - | - | - |
| 1778160121 | 8.89° C | 71% | 1009.8 hPa | 0 mm | - | - | - |
| 1778159791 | 8.89° C | 72% | 1009.7 hPa | 0 mm | - | - | - |
| 1778159461 | 7.78° C | 74% | 1009.7 hPa | 0 mm | - | - | - |
| 1778159131 | 7.78° C | 77% | 1009.8 hPa | 0 mm | - | - | - |
| 1778158831 | 7.22° C | 79% | 1009.8 hPa | 0 mm | - | - | - |
| 1778158501 | 6.67° C | 81% | 1009.7 hPa | 0 mm | - | - | - |
| 1778158201 | 6.67° C | 81% | 1009.7 hPa | 0 mm | - | - | - |
| 1778157901 | 6.67° C | 80% | 1009.8 hPa | 0 mm | - | - | - |
* Rain latest hour (hover to see other rain measurements)
** Current wind speed in m/s (hover to see current wind gust speed)